| Temperature (°F) | Max | Average | Min |
|---|---|---|---|
| Max Temperature | 96 | 90.68 | 77 |
| Avg Temperature | 82.89 | 79.52 | 69.22 |
| Min Temperature | 77 | 71.71 | 63 |
| Dew Point (°F) | Max | Average | Min |
|---|---|---|---|
| Dew Point | 77 | 68.64 | 52 |
| Precipitation (in) | Max | Average | Min | Sum |
|---|---|---|---|---|
| Precipitation | 0.60 | 0.05 | 0.00 | 1.45 |
| Snowdepth | 0.00 | 0.00 | 0.00 | 0.00 |
| Wind (mph) | Max | Average | Min |
|---|---|---|---|
| Wind | 23 | 8.41 | 0 |
| Gust Wind | 35 | 3.2 | 0 |
| Sea Level Pressure (in) | Max | Average | Min |
|---|---|---|---|
| Sea Level Pressure | 30.08 | 29.9 | 29.68 |
| Date | Temperature (°F) | Dew Point (°F) | Humidity (%) | Wind Speed (mph) | Pressure (in) | Precipitation (in) | ||||||||||
|---|---|---|---|---|---|---|---|---|---|---|---|---|---|---|---|---|
| Max | Avg | Min | Max | Avg | Min | Max | Avg | Min | Max | Avg | Min | Max | Avg | Min | ||
| 5/31/2026 | 90 | 81.5 | 77 | 77 | 74.3 | 71 | 94 | 79.4 | 55 | 18 | 6.9 | 0 | 29.9 | 29.9 | 29.8 | 0.00 |
| 5/30/2026 | 89 | 81.7 | 77 | 74 | 72.4 | 70 | 90 | 74.5 | 55 | 17 | 6.3 | 0 | 29.9 | 29.8 | 29.8 | 0.05 |
| 5/29/2026 | 93 | 80.8 | 75 | 76 | 73.2 | 69 | 94 | 79.1 | 47 | 23 | 5.7 | 0 | 29.9 | 29.8 | 29.8 | 0.01 |
| 5/28/2026 | 92 | 80.5 | 75 | 76 | 73.9 | 70 | 96 | 81.4 | 52 | 14 | 4.9 | 0 | 30.0 | 29.9 | 29.8 | 0.60 |
| 5/27/2026 | 94 | 82.3 | 76 | 75 | 72.8 | 69 | 94 | 74.7 | 47 | 20 | 9.5 | 0 | 30.0 | 29.9 | 29.9 | 0.02 |
| 5/26/2026 | 93 | 82.1 | 75 | 73 | 72.1 | 70 | 91 | 72.9 | 48 | 18 | 11.6 | 6 | 30.0 | 30.0 | 29.9 | 0.00 |
| 5/25/2026 | 93 | 82.9 | 76 | 74 | 71.2 | 68 | 91 | 70.3 | 44 | 17 | 11.0 | 6 | 30.0 | 30.0 | 29.9 | 0.00 |
| 5/24/2026 | 92 | 80.6 | 73 | 75 | 72.6 | 69 | 97 | 78.1 | 47 | 23 | 9.3 | 0 | 30.0 | 30.0 | 29.9 | 0.58 |
| 5/23/2026 | 95 | 81.8 | 74 | 75 | 72.2 | 66 | 97 | 74.8 | 43 | 18 | 9.7 | 3 | 30.0 | 30.0 | 29.9 | 0.00 |
| 5/22/2026 | 91 | 81.1 | 73 | 73 | 70.5 | 66 | 93 | 72.2 | 45 | 16 | 9.0 | 3 | 30.0 | 29.9 | 29.9 | 0.00 |
| 5/21/2026 | 92 | 81.6 | 73 | 72 | 69.8 | 66 | 93 | 69.4 | 46 | 21 | 10.2 | 0 | 30.0 | 29.9 | 29.9 | 0.00 |
| 5/20/2026 | 91 | 80.1 | 71 | 71 | 68.9 | 64 | 96 | 71.0 | 41 | 18 | 8.3 | 0 | 30.0 | 30.0 | 29.9 | 0.00 |
| 5/19/2026 | 91 | 81.0 | 74 | 73 | 70.6 | 69 | 93 | 72.3 | 52 | 18 | 10.6 | 5 | 30.1 | 30.0 | 30.0 | 0.00 |
| 5/18/2026 | 91 | 81.3 | 69 | 72 | 67.3 | 65 | 87 | 64.6 | 45 | 17 | 11.1 | 5 | 30.1 | 30.0 | 30.0 | 0.00 |
| 5/17/2026 | 90 | 80.0 | 76 | 73 | 70.7 | 68 | 91 | 74.6 | 48 | 17 | 9.5 | 3 | 30.1 | 30.0 | 30.0 | 0.03 |
| 5/16/2026 | 92 | 81.3 | 73 | 72 | 70.7 | 68 | 87 | 71.5 | 47 | 15 | 10.1 | 5 | 30.0 | 30.0 | 29.9 | 0.00 |
| 5/15/2026 | 92 | 80.1 | 69 | 71 | 64.0 | 55 | 87 | 60.4 | 29 | 18 | 8.3 | 0 | 30.0 | 29.9 | 29.8 | 0.00 |
| 5/14/2026 | 89 | 78.6 | 72 | 71 | 65.5 | 57 | 93 | 68.4 | 35 | 13 | 7.9 | 3 | 29.9 | 29.8 | 29.7 | 0.01 |
| 5/13/2026 | 89 | 77.6 | 72 | 73 | 70.2 | 62 | 96 | 80.1 | 47 | 13 | 5.7 | 0 | 29.9 | 29.8 | 29.7 | 0.00 |
| 5/12/2026 | 84 | 76.0 | 71 | 74 | 71.2 | 66 | 96 | 85.5 | 66 | 18 | 8.2 | 0 | 29.9 | 29.9 | 29.8 | 0.00 |
| 5/11/2026 | 92 | 82.5 | 73 | 75 | 70.2 | 65 | 94 | 68.9 | 45 | 13 | 5.0 | 0 | 30.0 | 29.9 | 29.9 | 0.00 |
| 5/10/2026 | 94 | 79.6 | 72 | 74 | 70.3 | 65 | 96 | 75.9 | 41 | 17 | 6.2 | 0 | 30.0 | 29.9 | 29.9 | 0.00 |
| 5/9/2026 | 96 | 79.4 | 72 | 73 | 69.8 | 63 | 97 | 76.4 | 34 | 16 | 7.5 | 0 | 29.9 | 29.8 | 29.8 | 0.00 |
| 5/8/2026 | 94 | 79.4 | 71 | 73 | 69.8 | 66 | 93 | 74.3 | 41 | 12 | 5.6 | 0 | 29.9 | 29.9 | 29.8 | 0.00 |
| 5/7/2026 | 95 | 82.7 | 68 | 68 | 61.7 | 52 | 90 | 53.6 | 26 | 14 | 8.5 | 3 | 29.9 | 29.9 | 29.8 | 0.00 |
| 5/6/2026 | 91 | 77.4 | 65 | 68 | 61.5 | 56 | 93 | 61.6 | 31 | 16 | 6.4 | 0 | 29.9 | 29.9 | 29.9 | 0.00 |
| 5/5/2026 | 85 | 73.6 | 65 | 64 | 59.9 | 57 | 87 | 64.3 | 42 | 14 | 7.1 | 0 | 29.9 | 29.9 | 29.9 | 0.00 |
| 5/4/2026 | 83 | 73.0 | 63 | 59 | 57.3 | 54 | 81 | 59.3 | 40 | 17 | 11.3 | 7 | 29.9 | 29.9 | 29.9 | 0.00 |
| 5/3/2026 | 77 | 69.2 | 64 | 66 | 60.7 | 58 | 93 | 76.2 | 52 | 17 | 11.7 | 7 | 30.0 | 29.9 | 29.9 | 0.15 |
| 5/2/2026 | 89 | 74.6 | 67 | 70 | 67.8 | 66 | 97 | 80.8 | 51 | 21 | 10.3 | 0 | 29.8 | 29.8 | 29.7 | 0.00 |
| 5/1/2026 | 92 | 81.1 | 72 | 72 | 65.0 | 59 | 94 | 61.4 | 35 | 10 | 7.6 | 3 | 29.8 | 29.8 | 29.7 | 0.00 |